STARLINK-33824 (63766 NORAD) Tracking and Keplerian Element Data

This shows tracking and keplerian element data for the satellite.

Feedback or suggestion? Click here.




ElementValue
Catalog63766
NameSTARLINK-33824
Epoch Orbit3668
Epoch Day353.46330962
Epoch Year2025
RAAN138.6907
Inclination43.0002
Eccentricity0.000106
Argument of Perigee261.9825
Mean Anonmoly98.0906
Mean Motion15.27592628
Decay Rate0.00013842
L11 63766U 25089R 25353.46330962 .00013842 00000+0 51140-3 0 9994
L22 63766 43.0002 138.6907 0001060 261.9825 98.0906 15.27592628 36685



Live tracking and technical data element details for STARLINK-33824 (NORAD 63766). STARLINK-33824 can be tracked NOW for your location showing map with azimuth and elevation plus other details from your city location.







IsCatalogInMostPopularTable: catalog: 63766, numindb: 2
Update: records affected: 1



GetName: 63766 STARLINK-33824

Hit Count: updated at: Sun, 08 Feb 2026 17:47:10 GMT